Content
SEND FEEDBACK

Daily
Averages
Monthly
Summary
United States of America

WASCO, OREGON


Home > North America > United States > Oregon
Elevation: 39 meters     Latitude: 45 35N     Longitude: 120 42W

WEATHER
 
SELECT A DAY
Number of Records: 164,438;   Date Range: 1/1/95 - 8/12/14
 
SHARE

PRINT THIS DATA

[ ← Previous Day ]
WEATHER ALMANAC - 31 JANUARY, 2013
[ Next Day → ]
[ °F ]   °C
Weather ElementAverageHighLow
Temperature9.2 °C12.8 °C (11:53 am)3.9 °C (11:53 pm)
Dewpoint3.8 °C5 °C (1:53 am)1.7 °C (11:53 pm)
Humidity69.8 %86 % (11:53 pm)55 % (11:53 am)
Barometer1027.1 hPa1028.4 hPa (8:53 am)1025.7 hPa (3:53 pm)
Wind Speed17.2 km/h40.7 km/h (2:53 am)
Wind Gust48.1 km/h (3:53 pm)
Weather ElementAverage
Visibility16.1 km
Wind DirectionWSW (245 °)

Weather ElementTotal
Precipitation---
Heating Degree Days10 (Base 18.3)
Averaged from 22 records on 31 January, 2013
WEATHER CONDITIONS BREAKOUT
WIND DIRECTION BREAKOUT
WEATHER BY HOUR - 31 JANUARY, 2013
[ °F ]   °C
Local TimeTemperatureDewpointHumidityBarometerVisibilityWind DirectionWind SpeedGust SpeedPrecipitationEventsConditions
1:53 AM10 °C5 °C71 %1028.1 hPa16.1 kmNW (310°)16.7 km/h31.5 km/hClear
2:53 AM10 °C5 °C71 %1027.4 hPa16.1 kmNW (310°)40.7 km/hClear
3:53 AM8.9 °C5 °C77 %1027.4 hPa16.1 kmNW (310°)25.9 km/h38.9 km/hClear
4:53 AM8.3 °C4.4 °C77 %1027.8 hPa16.1 kmNNW (330°)18.5 km/hClear
5:53 AM8.9 °C3.9 °C71 %1027.4 hPa16.1 kmNorth (360°)9.3 km/hClear
6:53 AM7.8 °C3.9 °C76 %1027.4 hPa16.1 kmVariable7.4 km/hClear
7:53 AM7.8 °C3.3 °C73 %1028.1 hPa16.1 kmNNW (340°)11.1 km/hClear
8:53 AM8.3 °C3.9 °C74 %1028.4 hPa16.1 kmCalmClear
9:53 AM10 °C4.4 °C68 %1028.1 hPa16.1 kmNNW (330°)14.8 km/hClear
11:53 AM12.8 °C3.9 °C55 %1027.4 hPa16.1 kmWNW (300°)18.5 km/hClear
12:53 PM12.2 °C3.9 °C57 %1026.8 hPa16.1 kmNNW (330°)24.1 km/hClear
1:53 PM11.7 °C3.9 °C59 %1026.1 hPa16.1 kmNW (320°)20.4 km/hMostly Cloudy
2:53 PM11.1 °C3.3 °C59 %1026.1 hPa16.1 kmNNW (330°)20.4 km/hMostly Cloudy
3:53 PM11.7 °C3.3 °C57 %1025.7 hPa16.1 kmWNW (300°)37 km/h48.1 km/hClear
4:53 PM10.6 °C3.3 °C61 %1026.1 hPa16.1 kmWNW (300°)20.4 km/hClear
5:53 PM9.4 °C3.9 °C69 %1026.1 hPa16.1 kmNW (320°)16.7 km/hClear
6:53 PM8.9 °C3.9 °C71 %1026.1 hPa16.1 kmWNW (300°)24.1 km/hClear
7:53 PM8.9 °C3.9 °C71 %1026.1 hPa16.1 kmWNW (300°)25.9 km/hClear
8:53 PM6.1 °C3.3 °C82 %1026.4 hPa16.1 kmEast (80°)9.3 km/hClear
9:53 PM8.9 °C3.9 °C71 %1026.8 hPa16.1 kmVariable5.6 km/hClear
10:53 PM6.1 °C2.8 °C80 %1026.8 hPa16.1 kmSW (220°)11.1 km/hClear
11:53 PM3.9 °C1.7 °C86 %1027.1 hPa16.1 kmCalmClear
Hourly data recorded from KDLS, located 0 kilometers away from Wasco, Oregon







STORIES FROM OUR PARTNERS